WS6A-13 Weather Reports


time (UTC)temp
F
wind
direction
speed
knots
gust
knots
rain 1hr
in
rain 24hr
in
rain mn
in
humidity
%
barometer
mb
20260507071504 43 61 0.0 0.0 0.00 0.09 0.00 90 1013.5
20260507064504 43 61 0.0 0.0 0.00 0.12 0.00 89 1013.5
20260507063004 43 61 0.0 0.0 0.00 0.13 0.00 89 1013.5
20260507061504 44 61 0.0 0.0 0.00 0.14 0.00 88 1013.5
20260507054504 45 61 0.0 0.0 0.00 0.20 0.00 88 1013.7
20260507053004 45 61 0.0 0.0 0.00 0.23 0.00 87 1013.6
20260507051504 46 61 0.0 0.0 0.00 0.29 0.00 87 1013.7
20260507050023 46 61 0.0 0.0 0.00 0.40 0.00 87 1014.0
20260507044504 46 61 0.0 0.0 0.00 0.43 0.00 87 1013.8
20260507043003 46 61 0.0 0.0 0.00 0.48 0.00 87 1013.7
20260507041504 46 61 0.0 0.0 0.00 0.53 0.00 87 1013.7
20260507040020 46 61 0.0 0.0 0.00 0.54 0.00 87 1013.5
20260507034504 46 61 0.0 0.0 0.00 0.54 0.54 86 1013.6
20260507033004 46 61 0.0 0.0 0.00 0.55 0.54 85 1013.6
20260507031503 47 61 0.0 0.0 0.00 0.55 0.54 84 1013.7
20260507030017 47 61 0.0 0.0 0.00 0.56 0.54 83 1013.8
20260507024504 48 61 0.0 0.0 0.00 0.57 0.54 81 1013.8
20260507023004 48 61 0.0 0.0 0.00 0.60 0.54 82 1013.8
20260507021504 49 61 0.0 0.0 0.00 0.66 0.54 81 1013.7
20260507014511 50 61 0.0 0.0 0.00 0.72 0.54 79 1013.2
20260507013004 51 61 0.0 0.0 0.00 0.73 0.54 78 1013.0
20260507011504 51 61 0.0 0.0 0.00 0.77 0.54 78 1013.0
20260507010012 52 61 0.0 0.0 0.00 0.83 0.54 78 1013.0
20260507004504 52 61 0.0 0.0 0.00 0.86 0.54 74 1012.9
20260507003004 53 61 0.0 0.0 0.00 0.87 0.54 73 1012.7
20260507001504 54 61 0.0 0.0 0.00 0.89 0.54 72 1012.5
20260507000010 55 61 0.0 0.0 0.00 0.90 0.54 67 1012.3
20260506234504 56 61 0.0 0.0 0.00 0.91 0.54 65 1012.4
20260506233004 56 61 0.0 0.0 0.00 0.91 0.54 62 1012.1
20260506231504 57 39 0.0 2.6 0.00 0.92 0.54 62 1012.2
20260506223004 57 51 0.0 0.0 0.00 0.93 0.54 62 1012.5
20260506220005 57 61 0.0 2.6 0.00 0.96 0.54 62 1012.6
20260506214504 57 243 0.0 2.6 0.00 0.96 0.54 60 1012.5
20260506213004 57 245 0.0 1.7 0.00 0.97 0.54 61 1012.3
20260506211504 57 51 0.0 2.6 0.00 0.97 0.54 63 1012.1
20260506204503 57 68 0.9 2.6 0.00 0.98 0.54 64 1011.9
20260506203004 57 33 0.0 2.6 0.00 1.00 0.54 60 1012.1
20260506201504 58 286 0.0 4.3 0.00 1.02 0.54 62 1012.1
20260506200004 58 51 0.0 2.6 0.00 1.05 0.54 60 1011.9
20260506193004 59 239 0.0 6.1 0.00 1.42 0.54 61 1011.6
20260506191504 59 55 0.0 5.2 0.00 1.42 0.54 59 1011.7
20260506190004 59 65 0.9 2.6 0.00 1.42 0.54 59 1011.8
20260506183003 59 232 0.0 6.1 0.00 1.42 0.54 60 1011.5
20260506181504 60 51 0.9 4.3 0.00 1.42 0.54 59 1011.5
20260506174504 60 251 0.0 5.2 0.00 1.42 0.54 61 1011.8
20260506171504 59 70 0.9 5.2 0.00 1.42 0.54 59 1011.9
20260506170004 58 17 0.0 4.3 0.00 1.42 0.54 60 1012.0
20260506164503 58 70 0.0 2.6 0.00 1.42 0.54 63 1012.1
20260506163004 58 48 0.0 2.6 0.00 1.42 0.54 60 1012.0
20260506161504 57 52 0.0 5.2 0.00 1.42 0.54 68 1011.8
20260506160004 56 49 0.0 6.1 0.00 1.42 0.54 67 1011.8
20260506154504 55 53 0.0 2.6 0.00 1.42 0.54 66 1012.2
20260506153004 55 38 0.0 2.6 0.00 1.42 0.54 69 1012.1
20260506151504 54 42 0.0 6.1 0.00 1.42 0.54 71 1011.5
20260506150004 54 46 0.0 6.1 0.01 1.42 0.54 73 1011.0
20260506144503 52 72 0.0 2.6 0.01 1.42 0.54 77 1011.0
20260506143003 51 41 0.0 2.6 0.01 1.42 0.54 77 1010.8
20260506141504 50 51 0.0 4.3 0.01 1.42 0.54 82 1010.8
20260506134504 49 59 0.0 2.6 0.00 1.41 0.53 87 1010.9
20260506131504 48 41 0.0 2.6 0.00 1.41 0.53 88 1010.5
20260506130005 47 43 0.0 2.6 0.00 1.41 0.53 89 1010.3
20260506124503 47 55 0.0 1.7 0.00 1.41 0.53 90 1009.8
20260506121503 46 358 0.0 2.6 0.00 1.41 0.53 92 1009.9
20260506120004 45 65 0.0 2.6 0.00 1.41 0.53 93 1009.4
20260506114504 45 39 0.0 0.0 0.00 1.42 0.53 93 1008.7
20260506113004 45 42 0.0 0.9 0.00 1.42 0.53 93 1008.4
20260506111504 45 48 0.0 0.9 0.00 1.42 0.53 94 1008.6
20260506110004 45 48 0.0 0.0 0.00 1.42 0.53 94 1008.3
20260506104504 45 48 0.0 0.0 0.00 1.42 0.53 94 1008.4
20260506103004 45 48 0.0 0.9 0.00 1.43 0.53 94 1007.4
20260506101503 45 55 0.0 2.6 0.00 1.44 0.53 94 1007.3
20260506094504 45 19 0.0 0.0 0.00 1.46 0.53 94 1007.2
20260506093004 45 350 0.0 0.0 0.00 1.49 0.53 94 1007.0
20260506091504 45 350 0.0 0.0 0.00 1.49 0.53 94 1006.7
20260506090004 45 29 0.0 1.7 0.01 1.49 0.53 94 1006.7
20260506084504 45 313 0.0 7.0 0.03 1.49 0.53 94 1006.7
20260506083003 45 36 0.0 4.3 0.04 1.49 0.53 94 1006.8
20260506081504 45 47 0.0 4.3 0.08 1.49 0.53 94 1006.5
20260506073004 46 26 1.7 6.1 0.08 1.46 0.49 93 1006.5